カタログに戻る

EUTE 115 WEST A(SATMEX 5

運用中通信GEO
NORAD 25558·PAYLOAD·🇪🇺 EU

打ち上げ Dec 6, 1998 から Guiana Space Centre

Loading…

TLE

最新Source: Space-Track

元期: Sep 14, 2026, 09:58 UTC

1 25558U 98070A   26257.41565778 -.00000043  00000-0  00000-0 0  9992
2 25558  10.5323  51.0635 0004839 108.2814 258.3234  0.98719586101348

AllMySatでEUTE 115 WEST A(SATMEX 5をリアルタイム追跡

Download on the App Store